Regional Weather Roundup
Issued by NWS Mobile, AL

Home | Current Version | Previous Version | Text Only | Print | Product List | Glossary On
Versions: 1 2 3 4 5 6 7 8 9 10 11 12 13 14 15 16 17 18 19 20 21 22 23 24 25 26 27
000
ASUS44 KMOB 212212
RWRMOB
REGIONAL WEATHER ROUNDUP
NATIONAL WEATHER SERVICE MOBILE AL
400 PM CST SAT JAN 21 2017

NOTE: "FAIR" INDICATES FEW OR NO CLOUDS BELOW 12,000 FEET WITH NO
      SIGNIFICANT WEATHER AND/OR OBSTRUCTIONS TO VISIBILITY.

  * THESE STATIONS ARE PART OF THE UNIVERSITY OF SOUTH ALABAMA
    MESONET AND ARE NOT UNDER NWS OR FAA QUALITY CONTROL.

ALZ061>064-212300-
COASTAL ALABAMA

CITY           SKY/WX    TMP DP  RH WIND       PRES   REMARKS
MOBILE REG APT CLOUDY    70  61  73 SE10      29.63F
BROOKLEY FIELD CLOUDY    69  64  84 S6        29.65S
USA CAMPUS*      N/A     70  59  68 SE6       29.63F
DOG RIVER*       N/A     66  64  94 S8        30.28S


CITY           SKY/WX    TMP DP  RH WIND       PRES   REMARKS
GULF SHORES    CLOUDY    67  65  93 E7        29.66R

$$

ALZ051>060-212300-
INTERIOR SOUTHWEST AND SOUTH CENTRAL ALABAMA

CITY           SKY/WX    TMP DP  RH WIND       PRES   REMARKS
GREENVILLE     SUNNY     72  58  61 S7        29.64S
EVERGREEN      PTSUNNY   70  60  70 S7        29.65S
ATMORE*          N/A     70  66  88 SE7       29.66F
ANDALUSIA/OPP  MOSUNNY   70  61  73 S3        29.66F
ANDALUSIA*       N/A     66  63  88 S7        29.67F
FLORALA APT    PTSUNNY   66  61  84 S7        29.69S
FLORALA*         N/A     66  63  88 E3        30.29F

$$

FLZ001>006-212300-
WESTERN FLORIDA PANHANDLE

CITY           SKY/WX    TMP DP  RH WIND       PRES   REMARKS
PENSACOLA      CLOUDY    67  62  84 E6        29.66S
NAS PENSACOLA  CLOUDY    67  62  84 E8        29.65F
MILTON         LGT RAIN  68  63  84 SE9       29.66S
WHTNG S FIELD  PTSUNNY   71  63  75 SE8       29.66F


CITY           SKY/WX    TMP DP  RH WIND       PRES   REMARKS
JAY*           NOT AVBL
DUKE FIELD     CLOUDY    66  62  86 SE3       29.67S
CRESTVIEW      CLOUDY    67  62  84 SE7       29.69F
VALPARAISO     CLOUDY    65  62  88 VRB3      29.68F
DESTIN         CLOUDY    69  67  93 CALM      29.68F

$$

MSZ076-079-212300-
INTERIOR SOUTHEAST MISSISSIPPI

CITY           SKY/WX    TMP DP  RH WIND       PRES   REMARKS
LEAKESVILLE*   NOT AVBL
AGRICOLA*      NOT AVBL

$$

MARINE OBSERVATIONS

STATION/POSITION TIME  TEMP    WIND        PRES    WAVE
                       AIR SEA DIR/SP/G            HT/PER
                 (UTC) (F)     (DEG/KT/KT) (MB)    (FT/S)
PASCAGOULA       2148   67     120/  6/  9 1002.8F
PETIT BOIS ISLND 2148   66     120/  9/ 11 1003.6F
GRAND BAY        2045   66     130/ 11     1004.0F
KATRINA CUT      2130          120/ 13     1003.4F
CEDAR POINT      2130   65     140/ 10     1003.7S
E DAUPHIN ISLAND 2100   65     120/ 12/ 14 1003.3F
MIDDLE BAY LIGHT 2130   66     130/ 13     1003.0F
USCG MOBILE BAY  2148   68 67  190/  5/  8 1004.1F
STATE DOCKS      2148                      1003.3F
MEAHER PARK      2130   67     220/  3     1003.0F
WEEKS BAY        2045   71                   N/A
FORT MORGAN      2148   66     110/ 13/ 14   N/A
12 S ORANGE BCH  2150   66 66   90/ 10/ 12 1003.7F   6/ 7
PENSACOLA BAY    2148           CALM  /  5 1004.5F
67 S FORT MORGAN 2130   74                 1004.4F

$$

SELECTED LOCATIONS ACROSS THE REGION

CITY           SKY/WX    TMP DP  RH WIND       PRES   REMARKS
NEW ORLEANS    MOSUNNY   77  69  76 S15       29.54S
GULFPORT       CLOUDY    68  62  81 SE13      29.59F
PASCAGOULA AP  CLOUDY    68  59  73 SE8       29.62F
PASCAGOULA*    NOT AVBL
HATTIESBURG    PTSUNNY   74  61  63 S8        29.58F
LAUREL         CLOUDY    73  59  60 SE8       29.60F
MERIDIAN       CLOUDY    72  59  63 S8        29.59F
JACKSON        PTSUNNY   72  58  61 S8        29.55F
MONTGOMERY     MOSUNNY   72  59  63 S6        29.64S
TROY           CLOUDY    66  61  84 S10       29.67S
ASHFORD*         N/A     66  63  88 S7        29.67F
DOTHAN         SUNNY     63  63 100 S7        29.72S
PANAMA CITY    LGT RAIN  66  64  93 NE5       29.67F

$$





USA.gov is the U.S. government's official web portal to all federal, state and local government web resources and services.